GPS BIIF-5 (PRN 30)

Last updated on July 6, 2021, 3:39 p.m. UTC

1 39533U 14008A   21186.33666874  .00000077  00000-0  00000-0 0  9991
2 39533  53.6734 223.0554 0054223 204.6252 155.1915  2.00562253 53427
UTC
Height (km)
Latitude
Longitude
Inclination
Orbital Period
UTC large
Height (km)
Speed (km/s)
/
Latitude / Longitude
Inclination (degrees)
Orbital Period (minutes)
Azimuth
Elevation
Range (km)
Doppler Factor
iOS Compass Heading
iOS Angle